Hourly Weather New Delhi

Today, 24 November, Tuesday

Time Temperature Precipitation Wind Pressure Humidity
00:00 +20°C° 0 mm 1 mps 742 mmHg 17%
01:00 +20°C° 0 mm 1 mps 742 mmHg 18%
02:00 +20°C° 0 mm 1 mps 741 mmHg 19%
03:00 +19°C° 0 mm 1 mps 741 mmHg 19%
04:00 +19°C° 0 mm 1 mps 741 mmHg 20%
05:00 +19°C° 0 mm 1 mps 741 mmHg 21%
06:00 +19°C° 0 mm 1 mps 742 mmHg 20%
07:00 +20°C° 0 mm 1 mps 742 mmHg 20%
08:00 +20°C° 0 mm 1 mps 743 mmHg 20%
09:00 +22°C° 0 mm 1 mps 743 mmHg 18%
10:00 +21°C° 0 mm 0 mps 743 mmHg 17%
11:00 +25°C° 0 mm 1 mps 743 mmHg 16%
12:00 +23°C° 0 mm 0 mps 742 mmHg 16%
13:00 +24°C° 0 mm 0 mps 742 mmHg 15%
14:00 +24°C° 0 mm 0 mps 741 mmHg 15%
15:00 +26°C° 0 mm 1 mps 741 mmHg 15%
16:00 +25°C° 0 mm 1 mps 741 mmHg 16%
17:00 +25°C° 0 mm 1 mps 741 mmHg 16%
18:00 +24°C° 0 mm 1 mps 741 mmHg 17%
19:00 +23°C° 0 mm 1 mps 742 mmHg 17%
20:00 +23°C° 0 mm 1 mps 742 mmHg 18%
21:00 +22°C° 0 mm 1 mps 742 mmHg 19%
22:00 +22°C° 0 mm 1 mps 742 mmHg 19%
23:00 +21°C° 0 mm 1 mps 742 mmHg 20%

Tomorrow, 25 November, Wednesday

Time Temperature Precipitation Wind Pressure Humidity
00:00 +21°C° 0 mm 1 mps 742 mmHg 20%
01:00 +21°C° 0 mm 1 mps 741 mmHg 21%
02:00 +21°C° 0 mm 1 mps 741 mmHg 21%
03:00 +21°C° 0 mm 1 mps 741 mmHg 21%
04:00 +20°C° 0 mm 1 mps 741 mmHg 22%
05:00 +20°C° 0 mm 1 mps 742 mmHg 22%
06:00 +21°C° 0 mm 1 mps 742 mmHg 22%
07:00 +21°C° 0 mm 1 mps 743 mmHg 23%
08:00 +21°C° 0 mm 1 mps 744 mmHg 23%
09:00 +22°C° 0 mm 1 mps 744 mmHg 21%
10:00 +23°C° 0 mm 1 mps 744 mmHg 19%
11:00 +25°C° 0 mm 1 mps 743 mmHg 17%
12:00 +25°C° 0 mm 1 mps 743 mmHg 17%
13:00 +26°C° 0 mm 2 mps 742 mmHg 16%
14:00 +26°C° 0 mm 2 mps 742 mmHg 16%
15:00 +26°C° 0 mm 3 mps 742 mmHg 18%
16:00 +25°C° 0 mm 3 mps 742 mmHg 21%
17:00 +23°C° 0 mm 4 mps 742 mmHg 23%
18:00 +22°C° 0 mm 4 mps 742 mmHg 28%
19:00 +22°C° 0 mm 4 mps 743 mmHg 32%
20:00 +21°C° 0 mm 3 mps 743 mmHg 37%
21:00 +20°C° 0 mm 3 mps 743 mmHg 39%
22:00 +20°C° 0 mm 3 mps 743 mmHg 42%
23:00 +20°C° 0 mm 2 mps 743 mmHg 45%

Day after tomorrow, 26 November, Thursday

Time Temperature Precipitation Wind Pressure Humidity
00:00 +20°C° 0 mm 2 mps 743 mmHg 44%
01:00 +20°C° 0 mm 2 mps 743 mmHg 44%
02:00 +19°C° 0 mm 2 mps 743 mmHg 44%
03:00 +19°C° 0 mm 2 mps 743 mmHg 44%
04:00 +19°C° 0 mm 2 mps 743 mmHg 44%
05:00 +19°C° 0 mm 2 mps 743 mmHg 43%
06:00 +20°C° 0 mm 2 mps 744 mmHg 42%
07:00 +20°C° 0 mm 2 mps 744 mmHg 41%
08:00 +21°C° 0 mm 2 mps 745 mmHg 40%
09:00 +24°C° 0 mm 3 mps 745 mmHg 36%
10:00 +25°C° 0 mm 3 mps 745 mmHg 33%
11:00 +27°C° 0 mm 4 mps 745 mmHg 29%
12:00 +27°C° 0 mm 4 mps 744 mmHg 28%
13:00 +28°C° 0 mm 3 mps 744 mmHg 26%
14:00 +28°C° 0 mm 3 mps 743 mmHg 25%
15:00 +27°C° 0 mm 3 mps 743 mmHg 27%
16:00 +26°C° 0 mm 3 mps 743 mmHg 29%
17:00 +26°C° 0 mm 3 mps 743 mmHg 31%
18:00 +25°C° 0 mm 3 mps 743 mmHg 32%
19:00 +24°C° 0 mm 3 mps 744 mmHg 34%
20:00 +23°C° 0 mm 4 mps 744 mmHg 36%
21:00 +22°C° 0 mm 4 mps 744 mmHg 36%
22:00 +21°C° 0 mm 4 mps 744 mmHg 36%
23:00 +21°C° 0 mm 3 mps 744 mmHg 36%

27 November, Friday

Time Temperature Precipitation Wind Pressure Humidity
00:00 +20°C° 0 mm 3 mps 744 mmHg 37%
01:00 +20°C° 0 mm 3 mps 744 mmHg 37%
02:00 +19°C° 0 mm 3 mps 744 mmHg 38%
03:00 +19°C° 0 mm 3 mps 744 mmHg 39%
04:00 +18°C° 0 mm 3 mps 744 mmHg 40%
05:00 +18°C° 0 mm 3 mps 744 mmHg 42%
06:00 +18°C° 0 mm 3 mps 744 mmHg 42%
07:00 +18°C° 0 mm 3 mps 745 mmHg 42%
08:00 +18°C° 0 mm 3 mps 746 mmHg 42%
09:00 +20°C° 0 mm 4 mps 746 mmHg 38%
10:00 +22°C° 0 mm 4 mps 746 mmHg 35%
11:00 +23°C° 0 mm 4 mps 746 mmHg 31%
12:00 +25°C° 0 mm 4 mps 745 mmHg 30%
13:00 +26°C° 0 mm 4 mps 744 mmHg 28%
14:00 +27°C° 0 mm 4 mps 744 mmHg 26%
15:00 +26°C° 0 mm 4 mps 743 mmHg 28%
16:00 +25°C° 0 mm 3 mps 743 mmHg 29%
17:00 +25°C° 0 mm 3 mps 743 mmHg 31%
18:00 +24°C° 0 mm 3 mps 743 mmHg 32%
19:00 +22°C° 0 mm 3 mps 744 mmHg 33%
20:00 +22°C° 0 mm 3 mps 744 mmHg 34%
21:00 +21°C° 0 mm 3 mps 744 mmHg 34%
22:00 +21°C° 0 mm 3 mps 744 mmHg 35%
23:00 +20°C° 0 mm 3 mps 744 mmHg 35%

28 November, Saturday

Time Temperature Precipitation Wind Pressure Humidity
00:00 +20°C° 0 mm 3 mps 744 mmHg 35%
01:00 +19°C° 0 mm 3 mps 744 mmHg 35%
02:00 +19°C° 0 mm 3 mps 744 mmHg 34%
03:00 +19°C° 0 mm 3 mps 743 mmHg 34%
04:00 +18°C° 0 mm 3 mps 743 mmHg 34%
05:00 +18°C° 0 mm 3 mps 743 mmHg 34%
06:00 +18°C° 0 mm 3 mps 744 mmHg 33%
07:00 +18°C° 0 mm 3 mps 744 mmHg 33%
08:00 +18°C° 0 mm 3 mps 745 mmHg 32%
09:00 +20°C° 0 mm 3 mps 745 mmHg 29%
10:00 +22°C° 0 mm 3 mps 745 mmHg 26%
11:00 +25°C° 0 mm 3 mps 745 mmHg 22%
12:00 +26°C° 0 mm 3 mps 744 mmHg 21%
13:00 +27°C° 0 mm 3 mps 743 mmHg 19%
14:00 +28°C° 0 mm 3 mps 742 mmHg 18%
15:00 +27°C° 0 mm 2 mps 742 mmHg 19%
16:00 +26°C° 0 mm 2 mps 742 mmHg 20%
17:00 +25°C° 0 mm 2 mps 742 mmHg 21%
18:00 +25°C° 0 mm 2 mps 742 mmHg 22%
19:00 +24°C° 0 mm 2 mps 743 mmHg 23%
20:00 +23°C° 0 mm 2 mps 743 mmHg 24%
21:00 +22°C° 0 mm 1 mps 743 mmHg 24%
22:00 +22°C° 0 mm 1 mps 743 mmHg 25%
23:00 +21°C° 0 mm 1 mps 743 mmHg 25%

29 November, Sunday

Time Temperature Precipitation Wind Pressure Humidity
00:00 +21°C° 0 mm 1 mps 743 mmHg 25%
01:00 +21°C° 0 mm 1 mps 742 mmHg 25%
02:00 +20°C° 0 mm 1 mps 742 mmHg 25%
03:00 +20°C° 0 mm 1 mps 742 mmHg 25%
04:00 +20°C° 0 mm 1 mps 742 mmHg 25%
05:00 +19°C° 0 mm 1 mps 742 mmHg 25%
06:00 +20°C° 0 mm 1 mps 743 mmHg 25%
07:00 +20°C° 0 mm 1 mps 743 mmHg 24%
08:00 +20°C° 0 mm 1 mps 743 mmHg 24%
09:00 +22°C° 0 mm 1 mps 743 mmHg 21%
10:00 +23°C° 0 mm 1 mps 743 mmHg 19%
11:00 +25°C° 0 mm 1 mps 743 mmHg 17%
12:00 +26°C° 0 mm 1 mps 743 mmHg 16%
13:00 +27°C° 0 mm 1 mps 742 mmHg 14%
14:00 +27°C° 0 mm 1 mps 741 mmHg 13%
15:00 +27°C° 0 mm 1 mps 741 mmHg 14%
16:00 +26°C° 0 mm 1 mps 741 mmHg 15%
17:00 +25°C° 0 mm 1 mps 741 mmHg 15%
18:00 +24°C° 0 mm 1 mps 742 mmHg 16%
19:00 +24°C° 0 mm 1 mps 742 mmHg 17%
20:00 +23°C° 0 mm 1 mps 742 mmHg 18%
21:00 +23°C° 0 mm 1 mps 742 mmHg 19%
22:00 +20°C° 0 mm 0 mps 742 mmHg 20%
23:00 +20°C° 0 mm 0 mps 742 mmHg 20%
Show more